Date String (YYYY-MM-DD hh:mm:ss) UTC,Instrument flags,Ambient pressure (hPa),Sample flow (lpm),Bypass flow (lpm),Sample temperature (°C),Ambient temperature (°C),ASC tube jacket temperature (°C),LED temperature (°C),Box temperature (°C),Sample RH (%),Span deviation,Mass concentration (μg/m³),Mass concentration (μg/m³),Mass concentration (μg/m³)
DateTimeUTC,F1_M11,P_M11,Q1_M11,Q2_M11,T1_M11,T2_M11,T3_M11,T4_M11,T5_M11,U1_M11,ZSPAN_M11,X2_M11,X0_M11,X1_M11
2022-09-17 23:00:00,,0822.2,5.01,0.00,29.8,27.1,00.0,38.5,31.5,20.0,0000.0,0004.40,0010.16,0003.93
2022-09-17 23:01:00,,0822.2,5.00,0.00,29.8,27.4,00.0,38.5,31.5,20.0,0000.0,0004.42,0010.60,0003.93
2022-09-17 23:02:00,,0822.2,4.99,0.00,29.8,27.8,00.0,38.5,31.6,19.7,0000.0,0004.41,0010.19,0003.94
2022-09-17 23:03:00,,0822.2,5.01,0.00,29.8,28.1,00.0,38.5,31.6,19.2,0000.0,0004.39,0010.90,0003.91
2022-09-17 23:04:00,,0822.1,4.99,0.00,29.8,28.3,00.0,38.5,31.7,19.8,0000.0,0004.40,0011.88,0003.90
2022-09-17 23:05:00,,0822.1,5.01,0.00,29.8,28.5,00.0,38.5,31.8,20.2,0000.0,0004.44,0011.40,0003.90
2022-09-17 23:06:00,,0822.1,4.99,0.00,29.9,28.6,00.0,38.5,31.8,20.1,0000.0,0004.47,0011.05,0003.89
2022-09-17 23:07:00,,0822.1,5.01,0.00,29.9,28.7,00.0,38.5,31.8,19.9,0000.0,0004.50,0011.03,0003.89
2022-09-17 23:08:00,,0822.1,4.99,0.00,29.9,28.9,00.0,38.6,31.9,19.9,0000.0,0004.55,0011.41,0003.89
2022-09-17 23:09:00,,0822.1,4.99,0.00,30.0,29.0,00.0,38.6,31.9,20.0,0000.0,0004.52,0011.47,0003.88
2022-09-17 23:10:00,,0822.2,5.00,0.00,30.0,28.4,00.0,38.6,31.9,19.9,0000.0,0004.53,0012.41,0003.89
2022-09-17 23:11:00,,0822.2,5.00,0.00,30.0,27.0,00.0,38.6,31.8,20.2,0000.0,0004.57,0012.75,0003.90
2022-09-17 23:12:00,,0822.2,4.99,0.00,29.9,26.5,00.0,38.5,31.7,20.2,0000.0,0004.58,0012.45,0003.92
2022-09-17 23:13:00,,0822.2,5.01,0.00,29.9,26.7,00.0,38.5,31.6,20.2,0000.0,0004.61,0013.43,0003.93
2022-09-17 23:14:00,,0822.2,4.99,0.00,29.8,27.0,00.0,38.5,31.5,20.4,0000.0,0004.68,0012.83,0003.96
2022-09-17 23:15:00,,0822.2,5.00,0.00,29.8,27.3,00.0,38.5,31.5,20.2,0000.0,0004.70,0012.24,0003.97
2022-09-17 23:16:00,,0822.2,4.99,0.00,29.8,27.7,00.0,38.5,31.5,20.0,0000.0,0004.68,0012.70,0003.97
2022-09-17 23:17:00,,0822.2,5.00,0.00,29.8,27.9,00.0,38.5,31.5,19.9,0000.0,0004.69,0013.13,0003.99
2022-09-17 23:18:00,,0822.2,4.99,0.00,29.8,28.1,00.0,38.5,31.6,19.8,0000.0,0004.70,0013.42,0003.99
2022-09-17 23:19:00,,0822.1,5.00,0.00,29.8,28.3,00.0,38.5,31.7,19.7,0000.0,0004.66,0013.36,0003.98
2022-09-17 23:20:00,,0822.1,4.99,0.00,29.8,28.5,00.0,38.5,31.7,19.6,0000.0,0004.68,0013.52,0003.98
2022-09-17 23:21:00,,0822.1,5.01,0.00,29.9,28.7,00.0,38.5,31.8,19.5,0000.0,0004.64,0012.37,0003.97
2022-09-17 23:22:00,,0822.1,4.99,0.00,29.9,28.8,00.0,38.5,31.9,19.7,0000.0,0004.60,0012.32,0003.96
2022-09-17 23:23:00,,0822.1,5.01,0.00,29.9,28.9,00.0,38.6,31.9,19.4,0000.0,0004.57,0012.52,0003.93
2022-09-17 23:24:00,,0822.1,5.00,0.00,30.0,28.0,00.0,38.6,31.9,19.4,0000.0,0004.56,0011.56,0003.92
2022-09-17 23:25:00,,0822.1,4.99,0.00,29.9,26.7,00.0,38.5,31.7,19.4,0000.0,0004.51,0011.04,0003.89
2022-09-17 23:26:00,,0822.1,5.00,0.00,29.9,26.3,00.0,38.5,31.7,19.4,0000.0,0004.45,0010.63,0003.87
2022-09-17 23:27:00,,0822.1,5.01,0.00,29.8,26.6,00.0,38.4,31.5,19.9,0000.0,0004.43,0010.07,0003.86
2022-09-17 23:28:00,,0822.1,5.00,0.00,29.7,26.9,00.0,38.4,31.4,19.9,0000.0,0004.39,0009.55,0003.83
2022-09-17 23:29:00,,0822.1,5.00,0.00,29.7,27.2,00.0,38.4,31.4,19.9,0000.0,0004.33,0008.85,0003.81
2022-09-17 23:30:00,,0822.1,5.00,0.00,29.7,27.6,00.0,38.4,31.4,19.9,0000.0,0004.31,0008.53,0003.80
2022-09-17 23:31:00,,0822.0,5.00,0.00,29.7,27.8,00.0,38.4,31.5,20.2,0000.0,0004.29,0008.18,0003.79
2022-09-17 23:32:00,,0822.1,5.01,0.00,29.7,28.1,00.0,38.4,31.6,20.7,0000.0,0004.32,0008.75,0003.78
2022-09-17 23:33:00,,0822.1,5.00,0.00,29.8,28.3,00.0,38.4,31.6,20.9,0000.0,0004.39,0009.12,0003.79
2022-09-17 23:34:00,,0822.1,5.00,0.00,29.8,28.4,00.0,38.4,31.6,21.1,0000.0,0004.45,0009.57,0003.81
2022-09-17 23:35:00,,0822.1,5.01,0.00,29.8,28.6,00.0,38.5,31.7,20.9,0000.0,0004.48,0009.38,0003.82
2022-09-17 23:36:00,,0822.1,5.00,0.00,29.9,28.7,00.0,38.5,31.8,20.9,0000.0,0004.50,0009.28,0003.84
2022-09-17 23:37:00,,0822.1,4.99,0.00,29.9,28.8,00.0,38.5,31.8,20.8,0000.0,0004.59,0009.74,0003.87
2022-09-17 23:38:00,,0822.1,5.01,0.00,29.9,28.5,00.0,38.5,31.9,21.1,0000.0,0004.64,0010.76,0003.89
2022-09-17 23:39:00,,0822.1,5.00,0.00,29.9,27.2,00.0,38.5,31.8,20.3,0000.0,0004.70,0011.40,0003.91
2022-09-17 23:40:00,,0822.1,5.01,0.00,29.9,26.4,00.0,38.4,31.7,20.1,0000.0,0004.75,0012.06,0003.92
2022-09-17 23:41:00,,0822.1,5.00,0.00,29.8,26.5,00.0,38.4,31.6,20.1,0000.0,0004.78,0012.18,0003.92
2022-09-17 23:42:00,,0822.1,4.99,0.00,29.7,26.8,00.0,38.4,31.4,20.3,0000.0,0004.77,0012.20,0003.92
2022-09-17 23:43:00,,0822.1,4.99,0.00,29.7,27.2,00.0,38.4,31.4,20.2,0000.0,0004.74,0012.41,0003.92
2022-09-17 23:44:00,,0822.1,5.00,0.00,29.7,27.5,00.0,38.4,31.4,20.4,0000.0,0004.69,0011.73,0003.93
2022-09-17 23:45:00,,0822.1,5.00,0.00,29.7,27.8,00.0,38.4,31.4,20.6,0000.0,0004.66,0010.92,0003.92
2022-09-17 23:46:00,,0822.1,5.00,0.00,29.7,28.0,00.0,38.4,31.5,20.7,0000.0,0004.68,0011.10,0003.91
2022-09-17 23:47:00,,0822.1,5.01,0.00,29.7,28.2,00.0,38.4,31.6,21.0,0000.0,0004.67,0011.17,0003.91
2022-09-17 23:48:00,,0822.1,4.99,0.00,29.8,28.4,00.0,38.4,31.7,21.0,0000.0,0004.63,0010.97,0003.90
2022-09-17 23:49:00,,0822.1,5.02,0.00,29.8,28.6,00.0,38.4,31.7,21.0,0000.0,0004.58,0010.67,0003.90
2022-09-17 23:50:00,,0822.1,4.99,0.00,29.8,28.7,00.0,38.5,31.7,20.9,0000.0,0004.54,0010.03,0003.89
2022-09-17 23:51:00,,0822.1,4.99,0.00,29.9,28.8,00.0,38.5,31.8,20.9,0000.0,0004.48,0009.65,0003.88
2022-09-17 23:52:00,,0822.1,4.99,0.00,29.9,28.3,00.0,38.5,31.8,21.1,0000.0,0004.47,0009.68,0003.88
2022-09-17 23:53:00,,0822.0,5.00,0.00,29.9,26.8,00.0,38.5,31.7,21.3,0000.0,0004.48,0009.69,0003.89
2022-09-17 23:54:00,,0821.9,5.00,0.00,29.8,26.2,00.0,38.4,31.6,21.5,0000.0,0004.50,0009.87,0003.91
2022-09-17 23:55:00,,0822.0,5.01,0.00,29.8,26.4,00.0,38.4,31.5,21.8,0000.0,0004.61,0010.62,0003.92
2022-09-17 23:56:00,,0821.9,4.98,0.00,29.7,26.7,00.0,38.4,31.3,22.2,0000.0,0004.67,0010.96,0003.94
2022-09-17 23:57:00,,0821.8,5.00,0.00,29.6,27.1,00.0,38.3,31.3,22.7,0000.0,0004.68,0011.63,0003.96
2022-09-17 23:58:00,,0821.8,5.00,0.00,29.6,27.4,00.0,38.3,31.4,22.7,0000.0,0004.70,0012.33,0003.98
2022-09-17 23:59:00,,0821.8,5.01,0.00,29.6,27.7,00.0,38.3,31.4,22.9,0000.0,0004.76,0012.61,0003.99
